Location: Caltech
(34.1382°N, 118.1253°W)
Time: 19:04:25
(UTC-08:00)

FENGYUN 3A - Visible Passes

Search period start: 20 February 2018 00:00
Search period end: 02 March 2018 00:00
Orbit: 820 x 832 km, 98.4° (Epoch: 20 February)

Date Brightness Start Highest point End Pass type
(mag) Time Alt. Az. Time Alt. Az. Time Alt. Az.
20 Feb 6.7 19:34:17 10° SW 19:37:16 15° W 19:40:16 10° WNW visible
21 Feb 6.1 19:13:58 10° SSW 19:18:10 23° W 19:22:25 10° NW visible
22 Feb 6.7 05:55:31 10° NE 05:59:35 21° E 06:03:37 10° SE visible
22 Feb 5.4 18:54:14 10° SSW 18:59:07 35° W 19:04:03 10° NNW visible
23 Feb 7.1 05:37:50 10° ENE 05:40:29 14° E 05:43:07 10° ESE visible
23 Feb 4.5 18:34:52 10° S 18:40:08 54° W 18:45:26 10° NNW visible
24 Feb 3.8 18:15:48 10° SSE 18:21:11 83° W 18:26:38 10° NNW visible
25 Feb 6.8 19:40:36 10° WSW 19:42:54 13° W 19:45:14 10° WNW visible
26 Feb 6.3 19:19:54 10° SW 19:23:47 20° W 19:27:42 10° NW visible
27 Feb 5.7 19:00:01 10° SSW 19:04:44 31° W 19:09:29 10° NW visible
28 Feb 7.0 05:42:53 10° NE 05:46:07 16° E 05:49:20 10° SE visible
28 Feb 4.8 18:40:33 10° S 18:45:43 47° W 18:50:56 10° NNW visible
01 Mar 4.0 18:21:22 10° S 18:26:45 73° WSW 18:32:11 10° NNW visible
